Houghton Lake, MI

8:00 AM EST on November 18, 2017 (GMT -0500)
Roscommon County

Weather History for KHTL - March, 2014

Change the Weather History Date:

Tuesday, March 4, 2014

  Actual Average Record
Temperature  
Mean Temperature 13 °F 24 °F  
Max Temperature 19 °F 35 °F 53 °F (2000)
Min Temperature 7 °F 14 °F -7 °F (1978)
Degree Days  
Heating Degree Days 52 41  
Month to date heating degree days 243 165  
Since 1 July heating degree days 6691 6037  
Cooling Degree Days 0 0  
Month to date cooling degree days 0 0  
Year to date cooling degree days 0 0  
Moisture  
Dew Point 7 °F    
Average Humidity 77    
Maximum Humidity 91    
Minimum Humidity 62    
Precipitation  
Precipitation 0.14 in 0.06 in 1.92 in (1976)
Month to date precipitation 0.23 0.22  
Year to date precipitation 3.03 2.94  
Snow  
Snow 2.00 in 0.40 in 8.10 in (1985)
Month to date snowfall 2.5 1.4  
Since 1 July snowfall 54.8 55.9  
Snow Depth 25.00 in    
Sea Level Pressure  
Sea Level Pressure 30.24 in    
Wind  
Wind Speed 5 mph (WSW)    
Max Wind Speed 10 mph    
Max Gust Speed 13 mph    
Visibility 4 miles    
Events Snow    
T = Trace of Precipitation, MM = Missing Value Source: NWS Daily Summary

Daily Weather History Graph

Daily Weather History Graph

Search for Another Location

Airport or City:

Trip Planner

Search our weather history database for the weather conditions in past years. The results will help you decide how hot, cold, wet, or windy it might be!

Date:

Astronomy

Mar. 04, 2014 Rise Set
Actual Time 7:10 AM EST 6:30 PM EST
Civil Twilight 6:41 AM EST 6:59 PM EST
Nautical Twilight 6:08 AM EST 7:33 PM EST
Astronomical Twilight 5:34 AM EST 8:07 PM EST
Moon 8:47 AM EST (3/4) 10:47 PM EST (3/4)
Length of Visible Light 12h 18m
Length of Day
11h 20m
Waxing Crescent, 14% of the Moon is Illuminated
Mar 4
Waxing Crescent
Mar 8
First Quarter
Mar 16
Full
Mar 23
Last Quarter
Mar 30
New

Hourly Weather History & Observations

Time (EST) Temp. Windchill Dew Point Humidity Pressure Visibility Wind Dir Wind Speed Gust Speed Precip Events Conditions
12:53 AM 7.0 °F -1.7 °F 1.0 °F 77% 30.35 in 10.0 mi WSW 4.6 mph - N/A   Overcast
1:40 AM 8.1 °F 1.4 °F 3.0 °F 80% 30.26 in 2.0 mi WSW 3.5 mph - 0.00 in Snow Light Snow
1:53 AM 8.1 °F 1.4 °F 3.9 °F 83% 30.34 in 2.5 mi WSW 3.5 mph - 0.00 in Snow Light Snow
2:10 AM 8.1 °F -0.5 °F 3.9 °F 83% 30.26 in 3.0 mi SW 4.6 mph - 0.01 in Snow Light Snow
2:53 AM 8.1 °F -0.5 °F 3.0 °F 80% 30.32 in 9.0 mi SW 4.6 mph - 0.01 in   Overcast
3:17 AM 8.1 °F -0.5 °F 3.0 °F 80% 30.24 in 2.5 mi WSW 4.6 mph - 0.00 in Snow Light Snow
3:53 AM 8.1 °F -0.5 °F 3.9 °F 83% 30.31 in 3.0 mi SW 4.6 mph - 0.00 in Snow Light Snow
4:01 AM 8.1 °F 1.4 °F 3.9 °F 83% 30.23 in 2.5 mi SW 3.5 mph - 0.00 in Snow Light Snow
4:15 AM 8.1 °F 1.4 °F 3.9 °F 83% 30.23 in 1.8 mi WSW 3.5 mph - 0.01 in Snow Light Snow
4:26 AM 8.1 °F -0.5 °F 3.9 °F 83% 30.22 in 2.0 mi SSW 4.6 mph - 0.01 in Snow Light Snow
4:53 AM 8.1 °F -2.0 °F 5.0 °F 87% 30.30 in 2.0 mi SSW 5.8 mph - 0.01 in Snow Light Snow
5:13 AM 8.1 °F -0.5 °F 5.0 °F 87% 30.21 in 1.8 mi SSW 4.6 mph - 0.01 in Snow Light Snow
5:24 AM 8.1 °F -2.0 °F 5.0 °F 87% 30.21 in 2.5 mi SSW 5.8 mph - 0.01 in Snow Light Snow
5:45 AM 9.0 °F -0.9 °F 5.0 °F 84% 30.21 in 1.8 mi SSW 5.8 mph - 0.02 in Snow Light Snow
5:53 AM 9.0 °F 0.6 °F 5.0 °F 84% 30.29 in 1.8 mi SSW 4.6 mph - 0.02 in Snow Light Snow
6:09 AM 9.0 °F -0.9 °F 5.0 °F 84% 30.21 in 2.0 mi SSW 5.8 mph - 0.01 in Snow Light Snow
6:36 AM 9.0 °F -0.9 °F 5.0 °F 84% 30.21 in 1.5 mi SSW 5.8 mph - 0.01 in Snow Light Snow
6:53 AM 9.0 °F 0.6 °F 6.1 °F 88% 30.29 in 1.2 mi SSW 4.6 mph - 0.02 in Snow Light Snow
7:53 AM 9.0 °F 0.6 °F 6.1 °F 88% 30.29 in 1.0 mi South 4.6 mph - 0.03 in Snow Light Snow
8:07 AM 9.0 °F -0.9 °F 6.1 °F 88% 30.21 in 0.8 mi SSW 5.8 mph - 0.00 in Snow Light Snow
8:21 AM 9.0 °F -0.9 °F 6.1 °F 88% 30.20 in 1.0 mi SSW 5.8 mph - 0.01 in Snow Light Snow
8:53 AM 10.0 °F -0.9 °F 6.1 °F 84% 30.29 in 1.2 mi SW 6.9 mph - 0.02 in Snow Light Snow
9:06 AM 10.0 °F 0.4 °F 6.1 °F 84% 30.20 in 1.5 mi SSW 5.8 mph - 0.00 in Snow Light Snow
9:14 AM 10.0 °F 0.4 °F 7.0 °F 87% 30.20 in 2.0 mi SSW 5.8 mph - 0.01 in Snow Light Snow
9:18 AM 10.0 °F 0.4 °F 6.1 °F 84% 30.20 in 3.0 mi SW 5.8 mph - 0.01 in Snow Light Snow
9:53 AM 10.9 °F 2.9 °F 7.0 °F 84% 30.28 in 5.0 mi SW 4.6 mph - 0.01 in Snow Light Snow
10:53 AM 14.0 °F 5.1 °F 8.1 °F 77% 30.26 in 5.0 mi West 5.8 mph - 0.00 in Snow Light Snow
11:15 AM 14.0 °F 5.1 °F 8.1 °F 77% 30.19 in 1.8 mi West 5.8 mph - 0.00 in Snow Light Snow
11:18 AM 14.0 °F 6.5 °F 8.1 °F 77% 30.18 in 1.5 mi West 4.6 mph - 0.00 in Snow Light Snow
11:43 AM 15.1 °F 9.4 °F 10.0 °F 80% 30.17 in 2.0 mi WSW 3.5 mph - 0.01 in Snow Light Snow
11:53 AM 14.0 °F 5.1 °F 9.0 °F 80% 30.25 in 2.0 mi SW 5.8 mph - 0.01 in Snow Light Snow
12:00 PM 14.0 °F 3.9 °F 9.0 °F 80% 30.16 in 4.0 mi SW 6.9 mph - 0.00 in Snow Light Snow
12:53 PM 16.0 °F 8.8 °F 10.0 °F 77% 30.24 in 4.0 mi West 4.6 mph - 0.01 in Snow Light Snow
1:53 PM 18.0 °F 7.7 °F 9.0 °F 68% 30.21 in 8.0 mi WSW 8.1 mph - 0.00 in Snow Light Snow
2:15 PM 18.0 °F 7.7 °F 10.0 °F 71% 30.13 in 9.0 mi SW 8.1 mph - 0.00 in Snow Light Snow
2:53 PM 19.0 °F 10.0 °F 9.0 °F 65% 30.21 in 10.0 mi WSW 6.9 mph - 0.00 in   Overcast
3:53 PM 19.0 °F 12.3 °F 9.0 °F 65% 30.21 in 10.0 mi West 4.6 mph - 0.00 in   Overcast
4:53 PM 19.0 °F 12.3 °F 9.0 °F 65% 30.22 in 10.0 mi West 4.6 mph - N/A   Overcast
5:53 PM 18.0 °F 12.7 °F 9.0 °F 68% 30.20 in 10.0 mi West 3.5 mph - N/A   Overcast
6:53 PM 17.1 °F 11.7 °F 9.0 °F 71% 30.23 in 10.0 mi WNW 3.5 mph - N/A   Overcast
7:53 PM 17.1 °F 10.0 °F 10.0 °F 74% 30.25 in 10.0 mi NW 4.6 mph - 0.00 in   Overcast
8:39 PM 16.0 °F 7.4 °F 12.0 °F 84% 30.18 in 2.5 mi North 5.8 mph - 0.00 in Snow Light Snow
8:53 PM 16.0 °F 7.4 °F 12.0 °F 84% 30.25 in 3.0 mi North 5.8 mph - 0.00 in Snow Light Snow
9:03 PM 16.0 °F 6.3 °F 10.9 °F 81% 30.19 in 5.0 mi North 6.9 mph - 0.00 in Snow Light Snow
9:53 PM 15.1 °F 6.4 °F 10.0 °F 80% 30.27 in 6.0 mi North 5.8 mph - 0.00 in Snow Light Snow
10:53 PM 12.9 °F 3.8 °F 8.1 °F 81% 30.29 in 9.0 mi NNW 5.8 mph - 0.00 in   Overcast
11:53 PM 10.9 °F 4.7 °F 7.0 °F 84% 30.31 in 10.0 mi NW 3.5 mph - N/A   Overcast